Back to catalog

FENGYUN 1C DEB

LostSSO
NORAD 37022·DEBRIS·🇨🇳 China

Launched May 10, 1999 from Taiyuan Satellite Launch Center

Loading…

Next Passes (next 24 hours)

TLE

StaleSource: Space-Track

Epoch: Sep 25, 2023, 02:18 UTC

1 37022U 99025EDE 23268.09634595  .00012261  00000-0  58434-2 0  9999
2 37022  98.4690 222.7452 0135337 342.4925  24.6236 14.14697799791059

Track FENGYUN 1C DEB in real time with AllMySat

Download on the App Store